Weather Roundup
Issued by NWS Chicago, IL

Home | Current Version | Previous Version | Graphics & Text | Print | Product List | Glossary On
Versions: 1 2 3 4 5 6 7 8 9 10 11 12 13 14 15 16 17 18 19 20 21 22 23 24 25 26 27 28 29 30 31 32 33 34 35 36 37 38 39 40 41 42 43 44 45 46 47 48 49 50
000
NZUS59 KLOT 220510
HRRLOT

CHICAGO AREA WEATHER ROUNDUP
NATIONAL WEATHER SERVICE CHICAGO/ROMEOVILLE IL
1100 PM CST SUN DEC 21 2014

NOTE: "FAIR" INDICATES FEW OR NO CLOUDS BELOW 12,000 FEET WITH NO
SIGNIFICANT WEATHER AND/OR OBSTRUCTIONS TO VISIBILITY.

* THESE STATIONS ARE NOT UNDER NWS QUALITY CONTROL. THEY ALSO MAY NOT
  REPORT WEATHER SUCH AS PRECIPITATION OR FOG.

ILZ005-006-012>014-019>023-220600-
NORTHEAST ILLINOIS

CITY           SKY/WX    TMP DP  RH WIND       PRES   REMARKS
OHARE          CLOUDY    32  27  81 S10       30.03S WCI  24
MIDWAY         MOCLDY    34  28  79 S10       30.04S WCI  26
AURORA         CLOUDY    34  28  79 SE14      30.02S HAZE    WCI  25
LANSING*       PTCLDY    32  28  84 S10       30.05S HAZE    WCI  23
JOLIET*        MOCLDY    32  28  88 SE6       30.04S FOG     WCI  26
WAUKEGAN       CLOUDY    33  29  85 SE10      30.02S FOG     WCI  25
DUPAGE AIRPORT MOCLDY    33  28  81 SE13      30.01S WCI  24
WHEELING       PTCLDY    33  27  78 S10       30.05R WCI  25
KANKAKEE*      CLOUDY    31  28  90 SE9       30.04F WCI  23
MORRIS*        CLOUDY    34  31  90 SE12      30.01F WCI  25
LEWIS AIRPORT* PTCLDY    31  28  90 SE9       30.03F FOG     WCI  23
NORTHERLY IS     N/A     33  28  82 S13         N/A  WCI  24
$$

WIZ051-052-058>065-066-070>072-220600-
SOUTHEAST WISCONSIN

CITY           SKY/WX    TMP DP  RH WIND       PRES   REMARKS
MILWAUKEE      CLOUDY    36  29  75 S12       30.02S
KENOSHA*       MOCLDY    34  29  82 S13       30.02S HAZE    WCI  25
RACINE*        MOCLDY    35  29  78 S13G23    30.04S WCI  26
BURLINGTON     CLOUDY    32  28  86 SE8       30.00F WCI  25
WAUKESHA       CLOUDY    32  30  93 SE8       30.00F WCI  25
WEST BEND      CLOUDY    34  30  86 S9        29.99F WCI  26
$$

INZ001>003-010>013-019-020-220600-
NORTHWEST INDIANA

CITY           SKY/WX    TMP DP  RH WIND       PRES   REMARKS
GARY*          PTCLDY    34  26  72 SE13      30.05F HAZE    WCI  25
MICHIGAN CITY* NOT AVBL
RENSSELAER*    NOT AVBL
VALPARAISO     CLEAR     30  25  81 SE10      30.07F WCI  21
$$

LMZ740>746-220600-
SOUTHERN LAKE MICHIGAN

STATION/POSITION TIME  SKY/WX   TEMP WIND        PRES    VSBY
                                AIR  DIR/SP/G
                 (UTC)          (F)  (DEG/KT/KT) (MB)    (MI)
HARRISON CRIB    0500            34  170/ 20/ 24   N/A
BURNHAM HARBOR   0500            33  160/ 10/ 14   N/A
CALUMET HARBOR   0500            33  150/  8/ 14 1016.2F
BURNS HARBOR     NOT AVBL
MICHIGAN CITY    NOT AVBL
$$

ABBREVIATIONS USED IN REMARKS
   TC - TEMPERATURE IN CELSIUS
  WCI - WIND CHILL INDEX
   HX - HEAT INDEX
  VSB - VISIBILITY
$$



USA.gov is the U.S. government's official web portal to all federal, state and local government web resources and services.